TFL5606 LGIR-EHAM

Flight info

Callsign TFL5606
Flight time 3h 43m
Altitude 38000
Route EPALO1V EPALO M749 DIRMI UM749 ATV DCT BITLA DCT ENFAR DCT UTOMO DCT PODOB DCT GUBOK DCT ZINPE DCT NIDLO DCT NURMI DCT RENKA DCT GASKA DCT MASEK DCT MAPOX DCT BIGGE DCT NORKU NORKU2A
Aircraft B738/M-SDE3/L

Departure

Time 2026-05-05 10:55
Airport Heraklion International Nikos Kazantzakis Airport (LGIR)

Arrival

Time 2026-05-05 14:39
Airport Amsterdam Airport Schiphol (EHAM)
Time Latitude Longitude Altitude Speed Heading
2026-05-05 10:18 35.33822 25.17413 90 ft 0 kts 320°
2026-05-05 10:44 35.33827 25.17408 91 ft 3 kts 320°
2026-05-05 10:44 35.33843 25.17391 92 ft 3 kts 320°
2026-05-05 10:45 35.33861 25.17378 90 ft 3 kts 335°
2026-05-05 10:45 35.33882 25.17377 92 ft 3 kts
2026-05-05 10:45 35.33903 25.17382 93 ft 3 kts 24°
2026-05-05 10:45 35.33917 25.17420 90 ft 8 kts 86°
2026-05-05 10:46 35.33912 25.17500 92 ft 10 kts 94°
2026-05-05 10:46 35.33906 25.17583 91 ft 10 kts 95°
2026-05-05 10:46 35.33900 25.17663 90 ft 9 kts 95°
2026-05-05 10:46 35.33895 25.17742 93 ft 9 kts 95°
2026-05-05 10:47 35.33889 25.17817 91 ft 9 kts 95°
2026-05-05 10:47 35.33884 25.17892 95 ft 9 kts 95°
2026-05-05 10:47 35.33880 25.17963 94 ft 8 kts 94°
2026-05-05 10:47 35.33874 25.18043 91 ft 13 kts 95°
2026-05-05 10:48 35.33865 25.18176 92 ft 16 kts 95°
2026-05-05 10:48 35.33856 25.18312 91 ft 16 kts 95°
2026-05-05 10:48 35.33847 25.18443 89 ft 15 kts 95°
2026-05-05 10:48 35.33838 25.18569 92 ft 15 kts 95°
2026-05-05 10:49 35.33830 25.18690 89 ft 14 kts 95°
2026-05-05 10:49 35.33822 25.18800 89 ft 8 kts 95°
2026-05-05 10:49 35.33820 25.18838 89 ft 0 kts 95°
2026-05-05 10:53 35.33820 25.18839 89 ft 0 kts 95°
2026-05-05 10:53 35.33818 25.18862 89 ft 6 kts 94°
2026-05-05 10:54 35.33820 25.18924 89 ft 8 kts 73°
2026-05-05 10:54 35.33855 25.18991 90 ft 10 kts 55°
2026-05-05 10:54 35.33894 25.19052 89 ft 5 kts 29°
2026-05-05 10:54 35.33903 25.19043 90 ft 2 kts 304°
2026-05-05 10:55 35.33906 25.19023 89 ft 2 kts 274°
2026-05-05 10:55 35.33921 25.18802 88 ft 69 kts 275°
2026-05-05 10:55 35.33986 25.17862 96 ft 151 kts 275°
2026-05-05 10:55 35.34084 25.16428 727 ft 173 kts 277°
2026-05-05 10:56 35.34386 25.15052 2017 ft 172 kts 300°
2026-05-05 10:56 35.35180 25.13943 2992 ft 182 kts 325°
2026-05-05 10:56 35.36450 25.13366 3381 ft 206 kts 343°
2026-05-05 10:56 35.37896 25.12867 3850 ft 220 kts 343°
2026-05-05 10:57 35.39380 25.12347 4621 ft 225 kts 343°
2026-05-05 10:57 35.40956 25.11782 5096 ft 248 kts 343°
2026-05-05 10:57 35.42641 25.11180 5943 ft 255 kts 344°
2026-05-05 10:57 35.44342 25.10578 6935 ft 256 kts 345°
2026-05-05 10:58 35.46077 25.09968 7791 ft 261 kts 345°
2026-05-05 10:58 35.47828 25.09357 8788 ft 262 kts 345°
2026-05-05 10:58 35.49592 25.08741 9701 ft 266 kts 345°
2026-05-05 10:58 35.51391 25.08113 10501 ft 273 kts 344°
2026-05-05 10:59 35.53306 25.07444 10742 ft 300 kts 344°
2026-05-05 10:59 35.55396 25.06712 10984 ft 323 kts 344°
2026-05-05 10:59 35.57570 25.05948 11584 ft 333 kts 344°
2026-05-05 10:59 35.59819 25.05157 12366 ft 337 kts 343°
2026-05-05 11:00 35.62082 25.04359 13191 ft 340 kts 343°
2026-05-05 11:00 35.64369 25.03553 13978 ft 344 kts 343°
2026-05-05 11:00 35.66686 25.02736 14659 ft 349 kts 343°
2026-05-05 11:00 35.69037 25.01906 15332 ft 353 kts 343°
2026-05-05 11:01 35.71416 25.01064 15958 ft 359 kts 342°
2026-05-05 11:01 35.73799 25.00084 16624 ft 362 kts 339°
2026-05-05 11:01 35.76166 24.98976 17329 ft 366 kts 338°
2026-05-05 11:01 35.78545 24.97825 17985 ft 370 kts 337°
2026-05-05 11:02 35.80961 24.96656 18605 ft 374 kts 337°
2026-05-05 11:02 35.83397 24.95488 19248 ft 376 kts 338°
2026-05-05 11:02 35.85803 24.94344 19933 ft 376 kts 338°
2026-05-05 11:02 35.88248 24.93188 20594 ft 377 kts 338°
2026-05-05 11:03 35.90707 24.92028 21210 ft 379 kts 338°
2026-05-05 11:03 35.93182 24.90862 21811 ft 381 kts 338°
2026-05-05 11:03 35.95663 24.89693 22404 ft 382 kts 338°
2026-05-05 11:03 35.98127 24.88531 22944 ft 386 kts 338°
2026-05-05 11:04 36.00650 24.87340 23467 ft 389 kts 338°
2026-05-05 11:04 36.03180 24.86145 23975 ft 390 kts 338°
2026-05-05 11:04 36.05720 24.84945 24457 ft 391 kts 338°
2026-05-05 11:04 36.08271 24.83737 24922 ft 393 kts 338°
2026-05-05 11:05 36.10828 24.82525 25357 ft 395 kts 338°
2026-05-05 11:05 36.13399 24.81305 25797 ft 397 kts 338°
2026-05-05 11:05 36.15987 24.80075 26221 ft 398 kts 338°
2026-05-05 11:05 36.18583 24.78841 26632 ft 400 kts 338°
2026-05-05 11:06 36.21189 24.77602 27046 ft 402 kts 338°
2026-05-05 11:06 36.23810 24.76354 27438 ft 404 kts 338°
2026-05-05 11:06 36.26444 24.75099 27798 ft 407 kts 338°
2026-05-05 11:06 36.29058 24.73853 28187 ft 408 kts 338°
2026-05-05 11:07 36.31710 24.72588 28581 ft 409 kts 338°
2026-05-05 11:07 36.34373 24.71317 28957 ft 411 kts 338°
2026-05-05 11:07 36.37044 24.70041 29309 ft 412 kts 338°
2026-05-05 11:07 36.39724 24.68760 29750 ft 412 kts 338°
2026-05-05 11:08 36.42384 24.67488 30303 ft 408 kts 338°
2026-05-05 11:08 36.45022 24.66225 30783 ft 405 kts 337°
2026-05-05 11:08 36.47653 24.64965 31184 ft 404 kts 337°
2026-05-05 11:08 36.50286 24.63702 31479 ft 406 kts 337°
2026-05-05 11:09 36.52919 24.62438 31823 ft 406 kts 337°
2026-05-05 11:09 36.55553 24.61173 32242 ft 404 kts 337°
2026-05-05 11:09 36.58167 24.59917 32656 ft 402 kts 337°
2026-05-05 11:09 36.60777 24.58662 33016 ft 401 kts 337°
2026-05-05 11:10 36.63379 24.57409 33354 ft 401 kts 336°
2026-05-05 11:10 36.65977 24.56158 33735 ft 400 kts 336°
2026-05-05 11:10 36.68569 24.54909 34109 ft 398 kts 336°
2026-05-05 11:10 36.71120 24.53678 34388 ft 398 kts 336°
2026-05-05 11:11 36.73709 24.52429 34667 ft 399 kts 336°
2026-05-05 11:11 36.76259 24.51067 34914 ft 398 kts 333°
2026-05-05 11:11 36.78748 24.49561 35195 ft 397 kts 332°
2026-05-05 11:11 36.81235 24.48014 35446 ft 398 kts 332°
2026-05-05 11:12 36.83707 24.46464 35665 ft 398 kts 332°
2026-05-05 11:12 36.86183 24.44913 35924 ft 398 kts 332°
2026-05-05 11:12 36.88658 24.43367 36126 ft 399 kts 332°
2026-05-05 11:13 36.93671 24.40248 36109 ft 403 kts 332°
2026-05-05 11:13 36.98666 24.37149 36108 ft 396 kts 332°
2026-05-05 11:14 37.03556 24.34114 36124 ft 395 kts 332°
2026-05-05 11:14 37.08492 24.31044 36116 ft 397 kts 332°
2026-05-05 11:15 37.13454 24.27954 36110 ft 398 kts 332°
2026-05-05 11:15 37.18418 24.24859 36108 ft 399 kts 332°
2026-05-05 11:16 37.23387 24.21755 36113 ft 399 kts 332°
2026-05-05 11:16 37.28364 24.18642 36116 ft 400 kts 332°
2026-05-05 11:17 37.33349 24.15520 36107 ft 400 kts 332°
2026-05-05 11:17 37.38326 24.12398 36106 ft 400 kts 332°
2026-05-05 11:18 37.42458 24.09802 36104 ft 399 kts 332°
2026-05-05 11:18 37.47423 24.06679 36085 ft 399 kts 332°
2026-05-05 11:19 37.52385 24.03553 36102 ft 398 kts 332°
2026-05-05 11:19 37.57300 24.00452 36098 ft 397 kts 332°
2026-05-05 11:20 37.62235 23.97334 36101 ft 396 kts 332°
2026-05-05 11:20 37.67164 23.94214 36106 ft 396 kts 332°
2026-05-05 11:21 37.72087 23.91094 36099 ft 395 kts 332°
2026-05-05 11:21 37.77005 23.87972 36111 ft 396 kts 332°
2026-05-05 11:22 37.81929 23.84841 36100 ft 396 kts 332°
2026-05-05 11:22 37.86859 23.81703 36103 ft 396 kts 332°
2026-05-05 11:23 37.91681 23.78340 36101 ft 396 kts 328°
2026-05-05 11:23 37.96341 23.74686 36085 ft 397 kts 327°
2026-05-05 11:24 38.01028 23.70979 36082 ft 397 kts 327°
2026-05-05 11:24 38.05724 23.67283 36073 ft 397 kts 327°
2026-05-05 11:25 38.10415 23.63602 36075 ft 396 kts 327°
2026-05-05 11:25 38.15102 23.59925 36078 ft 395 kts 327°
2026-05-05 11:26 38.19776 23.56252 36079 ft 395 kts 327°
2026-05-05 11:26 38.24447 23.52577 36088 ft 395 kts 327°
2026-05-05 11:27 38.29112 23.48901 36085 ft 394 kts 327°
2026-05-05 11:27 38.33782 23.45216 36084 ft 394 kts 327°
2026-05-05 11:28 38.38444 23.41531 36072 ft 394 kts 327°
2026-05-05 11:28 38.43101 23.37845 36077 ft 393 kts 327°
2026-05-05 11:29 38.47713 23.34188 36084 ft 392 kts 327°
2026-05-05 11:29 38.52348 23.30507 36086 ft 392 kts 327°
2026-05-05 11:30 38.56975 23.26827 36077 ft 391 kts 327°
2026-05-05 11:30 38.61603 23.23141 36088 ft 390 kts 327°
2026-05-05 11:31 38.66214 23.19462 36086 ft 390 kts 327°
2026-05-05 11:31 38.70791 23.15805 36081 ft 390 kts 327°
2026-05-05 11:32 38.75395 23.12121 36084 ft 390 kts 327°
2026-05-05 11:32 38.79995 23.08435 36084 ft 390 kts 327°
2026-05-05 11:33 38.84595 23.04742 36077 ft 390 kts 327°
2026-05-05 11:33 38.89200 23.01040 36076 ft 390 kts 327°
2026-05-05 11:34 38.93804 22.97333 36072 ft 391 kts 327°
2026-05-05 11:34 38.98384 22.93640 36084 ft 391 kts 327°
2026-05-05 11:35 39.02999 22.89912 36085 ft 392 kts 327°
2026-05-05 11:35 39.07617 22.86176 36072 ft 392 kts 327°
2026-05-05 11:36 39.12230 22.82440 36075 ft 393 kts 327°
2026-05-05 11:36 39.16863 22.78680 36075 ft 393 kts 327°
2026-05-05 11:37 39.21487 22.74921 36069 ft 392 kts 327°
2026-05-05 11:37 39.26103 22.71164 36074 ft 392 kts 327°
2026-05-05 11:38 39.30714 22.67405 36073 ft 392 kts 327°
2026-05-05 11:38 39.35271 22.63684 36080 ft 392 kts 327°
2026-05-05 11:39 39.39912 22.59888 36078 ft 392 kts 327°
2026-05-05 11:39 39.44524 22.56110 36089 ft 392 kts 327°
2026-05-05 11:40 39.49141 22.52321 36065 ft 392 kts 327°
2026-05-05 11:40 39.53748 22.48535 36080 ft 392 kts 327°
2026-05-05 11:41 39.58362 22.44737 36058 ft 392 kts 326°
2026-05-05 11:41 39.62937 22.40966 36072 ft 392 kts 326°
2026-05-05 11:42 39.67535 22.37168 36069 ft 391 kts 326°
2026-05-05 11:42 39.72126 22.33371 36077 ft 391 kts 326°
2026-05-05 11:43 39.76722 22.29564 36075 ft 391 kts 326°
2026-05-05 11:43 39.81310 22.25757 36090 ft 391 kts 326°
2026-05-05 11:44 39.85902 22.21941 36087 ft 392 kts 326°
2026-05-05 11:44 39.90474 22.18135 36087 ft 392 kts 326°
2026-05-05 11:45 39.95075 22.14299 36097 ft 392 kts 326°
2026-05-05 11:45 39.99677 22.10456 36086 ft 392 kts 326°
2026-05-05 11:46 40.04277 22.06608 36106 ft 392 kts 326°
2026-05-05 11:46 40.08872 22.02759 36118 ft 392 kts 326°
2026-05-05 11:47 40.13447 21.98919 36121 ft 393 kts 326°
2026-05-05 11:47 40.18046 21.95053 36137 ft 393 kts 326°
2026-05-05 11:48 40.24966 21.89225 36130 ft 394 kts 326°
2026-05-05 11:48 40.29566 21.85343 36141 ft 393 kts 326°
2026-05-05 11:49 40.34162 21.81457 36140 ft 393 kts 326°
2026-05-05 11:49 40.38729 21.77590 36117 ft 393 kts 326°
2026-05-05 11:50 40.43325 21.73691 36112 ft 392 kts 326°
2026-05-05 11:50 40.47906 21.69799 36118 ft 392 kts 326°
2026-05-05 11:51 40.52484 21.65904 36111 ft 392 kts 326°
2026-05-05 11:51 40.57057 21.62006 36118 ft 391 kts 326°
2026-05-05 11:52 40.61626 21.58104 36105 ft 391 kts 326°
2026-05-05 11:52 40.66173 21.54216 36101 ft 391 kts 326°
2026-05-05 11:53 40.70733 21.50309 36112 ft 391 kts 326°
2026-05-05 11:53 40.75295 21.46394 36112 ft 391 kts 325°
2026-05-05 11:54 40.79852 21.42477 36100 ft 391 kts 325°
2026-05-05 11:54 40.84410 21.38552 36110 ft 391 kts 325°
2026-05-05 11:55 40.88959 21.34610 36116 ft 391 kts 324°
2026-05-05 11:55 40.93441 21.30549 36119 ft 390 kts 324°
2026-05-05 11:56 40.97872 21.26489 36100 ft 389 kts 324°
2026-05-05 11:56 41.02339 21.22402 36108 ft 390 kts 324°
2026-05-05 11:57 41.06809 21.18317 36108 ft 391 kts 324°
2026-05-05 11:57 41.11300 21.14209 36106 ft 392 kts 324°
2026-05-05 11:58 41.15762 21.10120 36122 ft 391 kts 323°
2026-05-05 11:58 41.20243 21.06008 36126 ft 391 kts 323°
2026-05-05 11:59 41.24721 21.01891 36128 ft 391 kts 323°
2026-05-05 11:59 41.29209 20.97759 36132 ft 392 kts 323°
2026-05-05 12:00 41.33692 20.93624 36135 ft 392 kts 323°
2026-05-05 12:00 41.38184 20.89474 36123 ft 393 kts 323°
2026-05-05 12:01 41.42677 20.85316 36118 ft 393 kts 323°
2026-05-05 12:01 41.47163 20.81156 36125 ft 393 kts 323°
2026-05-05 12:02 41.50889 20.77696 36111 ft 392 kts 323°
2026-05-05 12:02 41.56088 20.72860 36116 ft 391 kts 323°
2026-05-05 12:03 41.59834 20.69370 36109 ft 391 kts 322°
2026-05-05 12:03 41.64299 20.65202 36121 ft 391 kts 322°
2026-05-05 12:04 41.68764 20.61027 36100 ft 392 kts 322°
2026-05-05 12:04 41.73235 20.56840 36110 ft 392 kts 323°
2026-05-05 12:05 41.77699 20.52716 36116 ft 393 kts 326°
2026-05-05 12:05 41.82438 20.49028 36113 ft 395 kts 328°
2026-05-05 12:06 41.87237 20.45427 36111 ft 395 kts 327°
2026-05-05 12:06 41.92032 20.41793 36104 ft 395 kts 327°
2026-05-05 12:07 41.96814 20.38132 36105 ft 396 kts 327°
2026-05-05 12:07 42.01601 20.34446 36105 ft 395 kts 327°
2026-05-05 12:08 42.06357 20.30775 36111 ft 393 kts 327°
2026-05-05 12:08 42.11105 20.27107 36097 ft 394 kts 327°
2026-05-05 12:09 42.15858 20.23426 36098 ft 394 kts 326°
2026-05-05 12:09 42.20617 20.19733 36103 ft 395 kts 327°
2026-05-05 12:10 42.25384 20.16029 36105 ft 396 kts 326°
2026-05-05 12:10 42.30145 20.12320 36090 ft 398 kts 326°
2026-05-05 12:11 42.34955 20.08569 36097 ft 399 kts 326°
2026-05-05 12:11 42.39773 20.04807 36111 ft 398 kts 326°
2026-05-05 12:12 42.44581 20.01050 36122 ft 399 kts 326°
2026-05-05 12:12 42.49414 19.97266 36112 ft 402 kts 326°
2026-05-05 12:13 42.54243 19.93462 36099 ft 405 kts 326°
2026-05-05 12:13 42.59144 19.89603 36095 ft 407 kts 327°
2026-05-05 12:14 42.64044 19.85742 36087 ft 407 kts 327°
2026-05-05 12:14 42.68944 19.81880 36086 ft 406 kts 327°
2026-05-05 12:15 42.73822 19.78035 36066 ft 404 kts 326°
2026-05-05 12:15 42.78679 19.74199 36085 ft 403 kts 326°
2026-05-05 12:16 42.83492 19.70388 36080 ft 403 kts 326°
2026-05-05 12:16 42.88341 19.66542 36081 ft 403 kts 326°
2026-05-05 12:17 42.93191 19.62687 36082 ft 404 kts 327°
2026-05-05 12:17 42.98062 19.58808 36072 ft 406 kts 327°
2026-05-05 12:18 43.02947 19.54912 36060 ft 407 kts 326°
2026-05-05 12:18 43.07847 19.50996 36058 ft 408 kts 326°
2026-05-05 12:19 43.12756 19.47067 36061 ft 409 kts 326°
2026-05-05 12:19 43.17686 19.43112 36044 ft 411 kts 326°
2026-05-05 12:20 43.22621 19.39146 36051 ft 411 kts 326°
2026-05-05 12:20 43.27521 19.35201 36061 ft 412 kts 326°
2026-05-05 12:21 43.32464 19.31214 36055 ft 412 kts 326°
2026-05-05 12:21 43.37411 19.27215 36049 ft 413 kts 326°
2026-05-05 12:22 43.42360 19.23208 36048 ft 413 kts 326°
2026-05-05 12:22 43.47319 19.19184 36040 ft 413 kts 326°
2026-05-05 12:23 43.52277 19.15154 36026 ft 414 kts 326°
2026-05-05 12:23 43.57224 19.11105 36043 ft 414 kts 326°
2026-05-05 12:24 43.62142 19.07049 36036 ft 414 kts 326°
2026-05-05 12:24 43.67084 19.02965 36039 ft 414 kts 326°
2026-05-05 12:25 43.72033 18.98868 36035 ft 414 kts 326°
2026-05-05 12:25 43.76982 18.94765 36019 ft 414 kts 326°
2026-05-05 12:26 43.81930 18.90656 36032 ft 415 kts 326°
2026-05-05 12:26 43.86887 18.86531 36034 ft 415 kts 326°
2026-05-05 12:27 43.91822 18.82416 36029 ft 417 kts 326°
2026-05-05 12:27 43.96797 18.78259 36025 ft 417 kts 326°
2026-05-05 12:28 44.01779 18.74089 36013 ft 418 kts 326°
2026-05-05 12:28 44.06769 18.69904 36012 ft 419 kts 326°
2026-05-05 12:29 44.11769 18.65702 36010 ft 420 kts 326°
2026-05-05 12:29 44.16772 18.61490 36002 ft 420 kts 326°
2026-05-05 12:30 44.21746 18.57293 36004 ft 420 kts 326°
2026-05-05 12:30 44.26747 18.53066 36002 ft 419 kts 326°
2026-05-05 12:31 44.31736 18.48838 35999 ft 420 kts 326°
2026-05-05 12:31 44.36728 18.44599 35995 ft 420 kts 326°
2026-05-05 12:32 44.41724 18.40350 35994 ft 420 kts 326°
2026-05-05 12:32 44.46715 18.36096 35991 ft 420 kts 326°
2026-05-05 12:33 44.51701 18.31837 35981 ft 420 kts 326°
2026-05-05 12:33 44.56663 18.27591 35992 ft 420 kts 326°
2026-05-05 12:34 44.61662 18.23303 35974 ft 422 kts 326°
2026-05-05 12:34 44.66676 18.18995 35990 ft 422 kts 325°
2026-05-05 12:35 44.71697 18.14671 35976 ft 423 kts 326°
2026-05-05 12:35 44.76702 18.10353 35971 ft 424 kts 325°
2026-05-05 12:36 44.81749 18.05988 35969 ft 425 kts 325°
2026-05-05 12:36 44.86793 18.01618 35976 ft 426 kts 325°
2026-05-05 12:37 44.91842 17.97234 35967 ft 426 kts 325°
2026-05-05 12:37 44.96889 17.92842 35969 ft 427 kts 326°
2026-05-05 12:38 45.01947 17.88432 35966 ft 427 kts 326°
2026-05-05 12:38 45.06787 17.84049 35966 ft 426 kts 322°
2026-05-05 12:39 45.11662 17.79141 35965 ft 425 kts 321°
2026-05-05 12:39 45.16459 17.74237 35965 ft 425 kts 321°
2026-05-05 12:40 45.21272 17.69353 35973 ft 426 kts 322°
2026-05-05 12:40 45.26081 17.64490 35969 ft 426 kts 322°
2026-05-05 12:41 45.30934 17.59580 35962 ft 426 kts 321°
2026-05-05 12:41 45.35728 17.54720 35967 ft 426 kts 321°
2026-05-05 12:42 45.40541 17.49827 35970 ft 426 kts 321°
2026-05-05 12:42 45.45370 17.44910 35968 ft 425 kts 321°
2026-05-05 12:43 45.50180 17.40000 35975 ft 425 kts 321°
2026-05-05 12:43 45.54998 17.35072 35970 ft 426 kts 321°
2026-05-05 12:44 45.58976 17.30994 35972 ft 427 kts 321°
2026-05-05 12:44 45.64444 17.25377 35980 ft 428 kts 321°
2026-05-05 12:45 45.69381 17.20294 35977 ft 429 kts 321°
2026-05-05 12:45 45.74236 17.15286 35971 ft 430 kts 321°
2026-05-05 12:46 45.79022 17.10256 35967 ft 430 kts 320°
2026-05-05 12:46 45.83811 17.05128 35972 ft 430 kts 320°
2026-05-05 12:47 45.88547 17.00048 35972 ft 430 kts 320°
2026-05-05 12:47 45.93397 16.94845 35974 ft 430 kts 320°
2026-05-05 12:48 45.97382 16.90567 35974 ft 430 kts 320°
2026-05-05 12:48 46.02174 16.85412 35978 ft 430 kts 320°
2026-05-05 12:49 46.06966 16.80246 35977 ft 431 kts 320°
2026-05-05 12:49 46.11771 16.75054 35977 ft 432 kts 320°
2026-05-05 12:50 46.16573 16.69853 35977 ft 432 kts 320°
2026-05-05 12:50 46.21392 16.64624 35974 ft 433 kts 320°
2026-05-05 12:51 46.26181 16.59414 35981 ft 433 kts 319°
2026-05-05 12:51 46.30998 16.54162 35970 ft 433 kts 320°
2026-05-05 12:52 46.35813 16.48901 35961 ft 433 kts 320°
2026-05-05 12:52 46.40619 16.43638 35963 ft 433 kts 320°
2026-05-05 12:53 46.45426 16.38361 35956 ft 433 kts 319°
2026-05-05 12:53 46.50223 16.33084 35948 ft 432 kts 319°
2026-05-05 12:54 46.57362 16.25206 35944 ft 431 kts 319°
2026-05-05 12:55 46.62140 16.19921 35941 ft 431 kts 319°
2026-05-05 12:55 46.66919 16.14622 35943 ft 432 kts 319°
2026-05-05 12:56 46.71700 16.09305 35932 ft 432 kts 319°
2026-05-05 12:56 46.76487 16.03973 35920 ft 433 kts 319°
2026-05-05 12:57 46.81272 15.98615 35915 ft 433 kts 317°
2026-05-05 12:57 46.85940 15.93062 35895 ft 433 kts 316°
2026-05-05 12:58 46.90564 15.87433 35908 ft 432 kts 316°
2026-05-05 12:58 46.95165 15.81848 35893 ft 433 kts 316°
2026-05-05 12:59 46.99734 15.76314 35884 ft 433 kts 316°
2026-05-05 12:59 47.04442 15.70611 35886 ft 432 kts 317°
2026-05-05 13:00 47.11391 15.62164 35869 ft 432 kts 316°
2026-05-05 13:01 47.20626 15.50887 35859 ft 431 kts 317°
2026-05-05 13:01 47.25237 15.45243 35860 ft 431 kts 317°
2026-05-05 13:02 47.29817 15.39622 35871 ft 431 kts 316°
2026-05-05 13:02 47.34432 15.33941 35858 ft 432 kts 316°
2026-05-05 13:03 47.39055 15.28239 35862 ft 433 kts 316°
2026-05-05 13:03 47.43683 15.22517 35868 ft 433 kts 316°
2026-05-05 13:04 47.48310 15.16782 35860 ft 435 kts 316°
2026-05-05 13:04 47.52941 15.11028 35855 ft 435 kts 316°
2026-05-05 13:05 47.57576 15.05256 35836 ft 436 kts 316°
2026-05-05 13:05 47.62181 14.99509 35838 ft 436 kts 316°
2026-05-05 13:06 47.66810 14.93709 35834 ft 435 kts 315°
2026-05-05 13:06 47.71127 14.87477 35823 ft 432 kts 310°
2026-05-05 13:07 47.75284 14.80983 35821 ft 432 kts 310°
2026-05-05 13:07 47.79446 14.74502 35790 ft 433 kts 310°
2026-05-05 13:08 47.83599 14.68098 35800 ft 433 kts 310°
2026-05-05 13:08 47.87795 14.61646 35788 ft 433 kts 311°
2026-05-05 13:09 47.91984 14.55195 35774 ft 433 kts 310°
2026-05-05 13:09 47.96166 14.48737 35768 ft 433 kts 310°
2026-05-05 13:10 48.00342 14.42272 35773 ft 433 kts 310°
2026-05-05 13:10 48.04448 14.35899 35773 ft 432 kts 310°
2026-05-05 13:11 48.08616 14.29413 35776 ft 432 kts 310°
2026-05-05 13:11 48.12780 14.22917 35774 ft 432 kts 310°
2026-05-05 13:12 48.16934 14.16421 35780 ft 432 kts 310°
2026-05-05 13:12 48.21095 14.09896 35780 ft 433 kts 310°
2026-05-05 13:13 48.25260 14.03350 35780 ft 434 kts 310°
2026-05-05 13:13 48.29422 13.96792 35776 ft 434 kts 310°
2026-05-05 13:14 48.33563 13.90250 35778 ft 435 kts 310°
2026-05-05 13:14 48.37731 13.83649 35779 ft 436 kts 310°
2026-05-05 13:15 48.41903 13.77025 35772 ft 436 kts 310°
2026-05-05 13:15 48.46079 13.70377 35770 ft 437 kts 309°
2026-05-05 13:16 48.50258 13.63708 35785 ft 437 kts 310°
2026-05-05 13:16 48.54433 13.57028 35775 ft 437 kts 310°
2026-05-05 13:17 48.58584 13.50370 35767 ft 437 kts 309°
2026-05-05 13:17 48.62640 13.43529 35775 ft 436 kts 307°
2026-05-05 13:18 48.66617 13.36600 35763 ft 436 kts 307°
2026-05-05 13:18 48.70592 13.29669 35765 ft 435 kts 307°
2026-05-05 13:19 48.74571 13.22752 35758 ft 435 kts 307°
2026-05-05 13:19 48.78547 13.15837 35774 ft 435 kts 307°
2026-05-05 13:20 48.82518 13.08916 35763 ft 435 kts 307°
2026-05-05 13:20 48.86485 13.01983 35762 ft 434 kts 307°
2026-05-05 13:21 48.90446 12.95043 35760 ft 435 kts 307°
2026-05-05 13:21 48.94405 12.88086 35760 ft 435 kts 307°
2026-05-05 13:22 48.98326 12.81181 35762 ft 434 kts 307°
2026-05-05 13:22 49.02269 12.74216 35752 ft 434 kts 307°
2026-05-05 13:23 49.06211 12.67234 35753 ft 434 kts 307°
2026-05-05 13:23 49.10144 12.60251 35751 ft 434 kts 307°
2026-05-05 13:24 49.14074 12.53255 35756 ft 433 kts 307°
2026-05-05 13:24 49.17995 12.46256 35762 ft 434 kts 306°
2026-05-05 13:25 49.21918 12.39232 35756 ft 435 kts 306°
2026-05-05 13:25 49.25823 12.32224 35755 ft 436 kts 306°
2026-05-05 13:26 49.29759 12.25141 35752 ft 437 kts 306°
2026-05-05 13:26 49.33693 12.18042 35765 ft 437 kts 306°
2026-05-05 13:27 49.37634 12.10913 35754 ft 438 kts 306°
2026-05-05 13:27 49.41576 12.03763 35774 ft 438 kts 306°
2026-05-05 13:28 49.45516 11.96595 35753 ft 439 kts 306°
2026-05-05 13:28 49.49421 11.89473 35769 ft 438 kts 306°
2026-05-05 13:29 49.53346 11.82293 35759 ft 438 kts 305°
2026-05-05 13:29 49.57260 11.75115 35762 ft 437 kts 305°
2026-05-05 13:30 49.61171 11.67922 35780 ft 437 kts 305°
2026-05-05 13:30 49.65075 11.60722 35772 ft 437 kts 305°
2026-05-05 13:31 49.68951 11.53553 35769 ft 437 kts 305°
2026-05-05 13:31 49.72847 11.46330 35771 ft 437 kts 305°
2026-05-05 13:32 49.76078 11.40322 35769 ft 437 kts 305°
2026-05-05 13:32 49.80660 11.31901 35785 ft 439 kts 307°
2026-05-05 13:33 49.84832 11.24960 35778 ft 440 kts 308°
2026-05-05 13:33 49.89052 11.18076 35794 ft 440 kts 308°
2026-05-05 13:34 49.93245 11.11151 35789 ft 440 kts 308°
2026-05-05 13:34 49.96709 11.05374 35797 ft 440 kts 308°
2026-05-05 13:35 50.00868 10.98399 35804 ft 440 kts 307°
2026-05-05 13:35 50.05030 10.91394 35794 ft 441 kts 307°
2026-05-05 13:36 50.09195 10.84365 35790 ft 442 kts 307°
2026-05-05 13:36 50.13366 10.77309 35801 ft 443 kts 307°
2026-05-05 13:37 50.17513 10.70275 35804 ft 443 kts 307°
2026-05-05 13:37 50.21691 10.63169 35799 ft 443 kts 307°
2026-05-05 13:38 50.25852 10.56072 35808 ft 443 kts 307°
2026-05-05 13:38 50.30008 10.48965 35805 ft 442 kts 307°
2026-05-05 13:39 50.34150 10.41860 35808 ft 441 kts 307°
2026-05-05 13:39 50.38263 10.34786 35811 ft 441 kts 307°
2026-05-05 13:40 50.42383 10.27680 35813 ft 440 kts 307°
2026-05-05 13:40 50.46495 10.20568 35827 ft 440 kts 307°
2026-05-05 13:41 50.50607 10.13435 35814 ft 440 kts 307°
2026-05-05 13:41 50.54708 10.06302 35819 ft 440 kts 307°
2026-05-05 13:42 50.58782 9.99195 35822 ft 441 kts 307°
2026-05-05 13:42 50.62889 9.92010 35820 ft 441 kts 307°
2026-05-05 13:43 50.66993 9.84813 35812 ft 442 kts 307°
2026-05-05 13:43 50.71101 9.77588 35819 ft 443 kts 306°
2026-05-05 13:44 50.75207 9.70343 35820 ft 443 kts 306°
2026-05-05 13:44 50.79314 9.63080 35814 ft 443 kts 306°
2026-05-05 13:45 50.83417 9.55800 35812 ft 443 kts 306°
2026-05-05 13:45 50.87508 9.48521 35815 ft 443 kts 306°
2026-05-05 13:46 50.91606 9.41208 35820 ft 443 kts 306°
2026-05-05 13:46 50.95671 9.33934 35838 ft 444 kts 306°
2026-05-05 13:47 50.99761 9.26595 35823 ft 444 kts 306°
2026-05-05 13:47 51.03846 9.19245 35826 ft 443 kts 306°
2026-05-05 13:48 51.07910 9.11910 35828 ft 441 kts 305°
2026-05-05 13:48 51.11962 9.04575 35822 ft 440 kts 305°
2026-05-05 13:49 51.15999 8.97247 35821 ft 439 kts 305°
2026-05-05 13:49 51.19995 8.89971 35822 ft 439 kts 305°
2026-05-05 13:50 51.24014 8.82631 35820 ft 439 kts 305°
2026-05-05 13:50 51.28027 8.75282 35814 ft 440 kts 305°
2026-05-05 13:51 51.32035 8.67923 35828 ft 438 kts 305°
2026-05-05 13:51 51.36030 8.60565 35838 ft 437 kts 305°
2026-05-05 13:52 51.40013 8.53208 35847 ft 437 kts 305°
2026-05-05 13:52 51.43989 8.45841 35852 ft 437 kts 305°
2026-05-05 13:53 51.47968 8.38448 35843 ft 438 kts 305°
2026-05-05 13:53 51.51931 8.31063 35859 ft 439 kts 305°
2026-05-05 13:54 51.55909 8.23630 35852 ft 439 kts 304°
2026-05-05 13:54 51.59882 8.16184 35855 ft 438 kts 305°
2026-05-05 13:55 51.63843 8.08738 35855 ft 437 kts 305°
2026-05-05 13:55 51.67776 8.01327 35539 ft 431 kts 304°
2026-05-05 13:56 51.69678 7.97743 35230 ft 423 kts 304°
2026-05-05 13:56 51.71577 7.94155 34842 ft 418 kts 304°
2026-05-05 13:56 51.73453 7.90603 34470 ft 414 kts 304°
2026-05-05 13:56 51.75306 7.87087 34096 ft 410 kts 303°
2026-05-05 13:57 51.77149 7.83583 33693 ft 406 kts 303°
2026-05-05 13:57 51.78965 7.80127 33275 ft 402 kts 304°
2026-05-05 13:57 51.80767 7.76691 32922 ft 397 kts 304°
2026-05-05 13:57 51.82548 7.73292 32523 ft 393 kts 304°
2026-05-05 13:58 51.84309 7.69928 32145 ft 390 kts 305°
2026-05-05 13:58 51.86048 7.66600 31792 ft 386 kts 305°
2026-05-05 13:58 51.87752 7.63335 31437 ft 382 kts 305°
2026-05-05 13:58 51.89462 7.60054 31075 ft 379 kts 305°
2026-05-05 13:59 51.92836 7.53568 30390 ft 374 kts 305°
2026-05-05 13:59 51.94503 7.50357 30040 ft 371 kts 305°
2026-05-05 14:00 51.97699 7.44192 29298 ft 365 kts 306°
2026-05-05 14:00 51.98840 7.41989 29069 ft 363 kts 306°
2026-05-05 14:00 52.01000 7.37811 28572 ft 359 kts 306°
2026-05-05 14:00 52.02604 7.34700 28238 ft 360 kts 306°
2026-05-05 14:01 52.04238 7.31524 27881 ft 377 kts 306°
2026-05-05 14:01 52.05951 7.28181 27537 ft 402 kts 306°
2026-05-05 14:01 52.07795 7.24581 27122 ft 426 kts 306°
2026-05-05 14:01 52.09735 7.20797 26673 ft 443 kts 307°
2026-05-05 14:02 52.11651 7.17072 26225 ft 441 kts 307°
2026-05-05 14:02 52.13615 7.13249 25781 ft 439 kts 307°
2026-05-05 14:02 52.15573 7.09429 25358 ft 437 kts 307°
2026-05-05 14:02 52.17512 7.05633 24924 ft 436 kts 307°
2026-05-05 14:03 52.19445 7.01842 24499 ft 434 kts 307°
2026-05-05 14:03 52.21371 6.98057 24076 ft 433 kts 307°
2026-05-05 14:03 52.23244 6.94346 23430 ft 434 kts 307°
2026-05-05 14:03 52.25137 6.90558 22880 ft 425 kts 307°
2026-05-05 14:04 52.26980 6.86855 22413 ft 416 kts 307°
2026-05-05 14:04 52.28768 6.83260 21990 ft 412 kts 307°
2026-05-05 14:04 52.30575 6.79625 21579 ft 411 kts 307°
2026-05-05 14:04 52.32372 6.76009 21173 ft 410 kts 307°
2026-05-05 14:05 52.34166 6.72396 20775 ft 408 kts 307°
2026-05-05 14:05 52.35949 6.68804 20358 ft 405 kts 307°
2026-05-05 14:05 52.37721 6.65233 19938 ft 403 kts 307°
2026-05-05 14:05 52.39485 6.61673 19564 ft 401 kts 307°
2026-05-05 14:06 52.41236 6.58134 19155 ft 399 kts 307°
2026-05-05 14:06 52.42976 6.54613 18758 ft 396 kts 307°
2026-05-05 14:06 52.44704 6.51108 18371 ft 394 kts 308°
2026-05-05 14:06 52.46293 6.47479 17930 ft 390 kts 296°
2026-05-05 14:07 52.47111 6.43291 17512 ft 384 kts 277°
2026-05-05 14:07 52.47363 6.39005 17142 ft 380 kts 273°
2026-05-05 14:07 52.47546 6.34687 16739 ft 378 kts 273°
2026-05-05 14:07 52.47724 6.30405 16349 ft 375 kts 273°
2026-05-05 14:08 52.47911 6.26144 15968 ft 373 kts 274°
2026-05-05 14:08 52.48107 6.21905 15592 ft 371 kts 274°
2026-05-05 14:08 52.48309 6.17687 15205 ft 370 kts 274°
2026-05-05 14:08 52.48513 6.13484 14831 ft 369 kts 274°
2026-05-05 14:09 52.48716 6.09298 14458 ft 367 kts 274°
2026-05-05 14:09 52.48916 6.05131 14085 ft 366 kts 275°
2026-05-05 14:09 52.49113 6.00982 13708 ft 364 kts 275°
2026-05-05 14:09 52.49305 5.96899 13296 ft 361 kts 274°
2026-05-05 14:10 52.49496 5.92830 12908 ft 355 kts 274°
2026-05-05 14:10 52.49684 5.88793 12530 ft 354 kts 274°
2026-05-05 14:10 52.49870 5.84775 12163 ft 351 kts 274°
2026-05-05 14:10 52.50052 5.80803 11800 ft 349 kts 274°
2026-05-05 14:11 52.50233 5.76841 11433 ft 346 kts 274°
2026-05-05 14:11 52.50411 5.72908 11068 ft 345 kts 274°
2026-05-05 14:11 52.50588 5.68982 10708 ft 345 kts 274°
2026-05-05 14:11 52.50763 5.65052 10343 ft 345 kts 273°
2026-05-05 14:12 52.50936 5.61138 10082 ft 341 kts 274°
2026-05-05 14:12 52.51048 5.57349 9915 ft 320 kts 265°
2026-05-05 14:12 52.50547 5.53947 9865 ft 294 kts 250°
2026-05-05 14:12 52.49888 5.50916 9811 ft 273 kts 249°
2026-05-05 14:13 52.49247 5.48003 9609 ft 269 kts 250°
2026-05-05 14:13 52.48614 5.45126 9490 ft 266 kts 250°
2026-05-05 14:13 52.47986 5.42260 9373 ft 267 kts 250°
2026-05-05 14:13 52.47359 5.39388 9268 ft 269 kts 250°
2026-05-05 14:14 52.46726 5.36481 9161 ft 272 kts 250°
2026-05-05 14:14 52.46090 5.33561 9048 ft 271 kts 250°
2026-05-05 14:14 52.45456 5.30648 8944 ft 271 kts 250°
2026-05-05 14:14 52.44824 5.27745 8832 ft 270 kts 250°
2026-05-05 14:15 52.44194 5.24848 8713 ft 269 kts 250°
2026-05-05 14:15 52.43564 5.21960 8618 ft 269 kts 250°
2026-05-05 14:15 52.42934 5.19075 8517 ft 268 kts 250°
2026-05-05 14:15 52.42306 5.16200 8417 ft 267 kts 250°
2026-05-05 14:16 52.41690 5.13381 8313 ft 267 kts 250°
2026-05-05 14:16 52.41060 5.10504 8205 ft 267 kts 250°
2026-05-05 14:16 52.40433 5.07644 8104 ft 266 kts 250°
2026-05-05 14:16 52.39804 5.04783 7998 ft 267 kts 250°
2026-05-05 14:17 52.39177 5.01927 7895 ft 267 kts 250°
2026-05-05 14:17 52.38547 4.99068 7792 ft 267 kts 250°
2026-05-05 14:17 52.37916 4.96204 7688 ft 267 kts 250°
2026-05-05 14:17 52.37293 4.93384 7583 ft 267 kts 250°
2026-05-05 14:18 52.36663 4.90532 7476 ft 267 kts 250°
2026-05-05 14:18 52.36030 4.87668 7371 ft 267 kts 250°
2026-05-05 14:18 52.35388 4.84768 7262 ft 268 kts 250°
2026-05-05 14:18 52.34762 4.81952 7161 ft 264 kts 250°
2026-05-05 14:19 52.34143 4.79167 7047 ft 256 kts 250°
2026-05-05 14:19 52.33546 4.76480 6940 ft 247 kts 251°
2026-05-05 14:19 52.33366 4.73751 6749 ft 242 kts 281°
2026-05-05 14:19 52.33747 4.71097 6566 ft 240 kts 283°
2026-05-05 14:20 52.34129 4.68426 6351 ft 241 kts 283°
2026-05-05 14:20 52.34503 4.65760 6099 ft 240 kts 281°
2026-05-05 14:20 52.34448 4.63067 5825 ft 240 kts 249°
2026-05-05 14:20 52.33640 4.60710 5638 ft 237 kts 237°
2026-05-05 14:21 52.32747 4.58433 5399 ft 237 kts 238°
2026-05-05 14:21 52.31852 4.56145 5160 ft 241 kts 238°
2026-05-05 14:21 52.30947 4.53819 4945 ft 244 kts 238°
2026-05-05 14:21 52.30033 4.51464 4769 ft 246 kts 238°
2026-05-05 14:22 52.29117 4.49102 4535 ft 249 kts 238°
2026-05-05 14:22 52.28497 4.47504 4364 ft 249 kts 238°
2026-05-05 14:22 52.27065 4.44616 4001 ft 249 kts 211°
2026-05-05 14:22 52.25458 4.43794 3795 ft 241 kts 177°
2026-05-05 14:23 52.23849 4.44316 3577 ft 235 kts 153°
2026-05-05 14:23 52.22874 4.45130 3430 ft 231 kts 144°
2026-05-05 14:23 52.21731 4.46842 3176 ft 221 kts 115°
2026-05-05 14:23 52.21185 4.49101 2996 ft 215 kts 105°
2026-05-05 14:24 52.20827 4.51417 2774 ft 210 kts 89°
2026-05-05 14:24 52.21253 4.53600 2595 ft 199 kts 56°
2026-05-05 14:24 52.21977 4.55520 2395 ft 199 kts 58°
2026-05-05 14:24 52.22681 4.57421 2224 ft 192 kts 56°
2026-05-05 14:25 52.23366 4.59226 2069 ft 183 kts 56°
2026-05-05 14:25 52.24025 4.60952 1845 ft 174 kts 56°
2026-05-05 14:25 52.24644 4.62573 1616 ft 162 kts 56°
2026-05-05 14:25 52.25216 4.64068 1407 ft 150 kts 55°
2026-05-05 14:26 52.25742 4.65440 1219 ft 137 kts 55°
2026-05-05 14:26 52.26240 4.66766 1008 ft 137 kts 56°
2026-05-05 14:26 52.26751 4.68086 790 ft 140 kts 57°
2026-05-05 14:26 52.27269 4.69431 638 ft 142 kts 56°
2026-05-05 14:27 52.27786 4.70798 407 ft 141 kts 55°
2026-05-05 14:27 52.28299 4.72124 261 ft 137 kts 57°
2026-05-05 14:27 52.28798 4.73425 94 ft 134 kts 56°
2026-05-05 14:27 52.29272 4.74670 6 ft 122 kts 57°
2026-05-05 14:28 52.29708 4.75793 51 ft 136 kts 56°
2026-05-05 14:28 52.30238 4.77240 929 ft 152 kts 58°
2026-05-05 14:28 52.30783 4.78859 2087 ft 175 kts 61°
2026-05-05 14:28 52.31345 4.80724 3218 ft 186 kts 61°
2026-05-05 14:29 52.32235 4.82530 3499 ft 222 kts 34°
2026-05-05 14:29 52.33580 4.83575 3875 ft 209 kts 15°
2026-05-05 14:29 52.34956 4.83369 3978 ft 200 kts 341°
2026-05-05 14:29 52.36162 4.82344 3981 ft 194 kts 336°
2026-05-05 14:30 52.37361 4.81307 3997 ft 203 kts 335°
2026-05-05 14:30 52.38751 4.80160 4017 ft 243 kts 334°
2026-05-05 14:30 52.40064 4.78333 3999 ft 254 kts 306°
2026-05-05 14:30 52.40680 4.75607 4014 ft 261 kts 276°
2026-05-05 14:31 52.40409 4.72654 4002 ft 270 kts 247°
2026-05-05 14:31 52.39460 4.70014 4000 ft 268 kts 237°
2026-05-05 14:31 52.38402 4.67486 3961 ft 270 kts 236°
2026-05-05 14:31 52.37323 4.64962 3881 ft 272 kts 235°
2026-05-05 14:32 52.36237 4.62424 3772 ft 272 kts 235°
2026-05-05 14:32 52.35167 4.59929 3658 ft 265 kts 235°
2026-05-05 14:32 52.34109 4.57466 3546 ft 264 kts 235°
2026-05-05 14:32 52.33056 4.55018 3451 ft 264 kts 235°
2026-05-05 14:33 52.31996 4.52553 3358 ft 267 kts 236°
2026-05-05 14:33 52.30912 4.50083 3259 ft 267 kts 229°
2026-05-05 14:33 52.29423 4.48449 3124 ft 253 kts 192°
2026-05-05 14:33 52.27807 4.48608 3019 ft 222 kts 151°
2026-05-05 14:34 52.26557 4.49831 3010 ft 201 kts 144°
2026-05-05 14:34 52.25498 4.51133 2979 ft 184 kts 133°
2026-05-05 14:34 52.24571 4.52474 2867 ft 174 kts 131°
2026-05-05 14:34 52.23885 4.53988 2686 ft 160 kts 109°
2026-05-05 14:35 52.23494 4.55691 2527 ft 159 kts 96°
2026-05-05 14:35 52.23403 4.57435 2352 ft 154 kts 84°
2026-05-05 14:35 52.23531 4.59153 2142 ft 150 kts 70°
2026-05-05 14:35 52.23986 4.60671 1903 ft 148 kts 59°
2026-05-05 14:36 52.24490 4.62128 1689 ft 146 kts 57°
2026-05-05 14:36 52.25006 4.63511 1505 ft 136 kts 56°
2026-05-05 14:36 52.25507 4.64818 1301 ft 134 kts 55°
2026-05-05 14:36 52.25995 4.66116 1078 ft 136 kts 56°
2026-05-05 14:37 52.26491 4.67415 922 ft 134 kts 56°
2026-05-05 14:37 52.26991 4.68722 721 ft 136 kts 56°
2026-05-05 14:37 52.27496 4.70029 539 ft 136 kts 55°
2026-05-05 14:37 52.27995 4.71339 349 ft 137 kts 55°
2026-05-05 14:38 52.28497 4.72642 181 ft 135 kts 57°
2026-05-05 14:38 52.28996 4.73943 27 ft 136 kts 57°
2026-05-05 14:38 52.29447 4.75116 -4 ft 97 kts 58°
2026-05-05 14:38 52.29702 4.75780 -4 ft 54 kts 58°
2026-05-05 14:39 52.29890 4.76266 -5 ft 46 kts 57°
2026-05-05 14:39 52.30065 4.76571 -3 ft 33 kts 29°
2026-05-05 14:39 52.30212 4.76697 -2 ft 18 kts 28°
2026-05-05 14:39 52.30324 4.76725 -2 ft 17 kts 340°
2026-05-05 14:40 52.30407 4.76756 -2 ft 7 kts 348°
2026-05-05 14:40 52.30452 4.76719 -2 ft 5 kts 334°
2026-05-05 14:40 52.30458 4.76714 -2 ft 0 kts 334°